owner,sensor,date,latitude,longitude,air_temperature,qcFlag 
LUMCON,ioos:station:LUMCON:101:1,2016-02-01T00:00:00Z,29.2533,-90.6633,18.2,1111122 
LUMCON,ioos:station:LUMCON:101:1,2016-02-01T00:15:00Z,29.2533,-90.6633,18.5,1111122 
LUMCON,ioos:station:LUMCON:101:1,2016-02-01T00:30:00Z,29.2533,-90.6633,18.5,1111122 
LUMCON,ioos:station:LUMCON:101:1,2016-02-01T00:45:00Z,29.2533,-90.6633,18.3,1111122 
LUMCON,ioos:station:LUMCON:101:1,2016-02-01T01:00:00Z,29.2533,-90.6633,18.3,1111122 
LUMCON,ioos:station:LUMCON:101:1,2016-02-01T01:15:00Z,29.2533,-90.6633,18.4,1111122 
LUMCON,ioos:station:LUMCON:101:1,2016-02-01T01:30:00Z,29.2533,-90.6633,18.5,1111122 
LUMCON,ioos:station:LUMCON:101:1,2016-02-01T01:45:00Z,29.2533,-90.6633,18.7,1111122 
LUMCON,ioos:station:LUMCON:101:1,2016-02-01T02:00:00Z,29.2533,-90.6633,18.7,1111122 
LUMCON,ioos:station:LUMCON:101:1,2016-02-01T02:15:00Z,29.2533,-90.6633,19.2,1111122 
LUMCON,ioos:station:LUMCON:101:1,2016-02-01T02:30:00Z,29.2533,-90.6633,19.5,1111122 
LUMCON,ioos:station:LUMCON:101:1,2016-02-01T02:45:00Z,29.2533,-90.6633,19.5,1111122 
LUMCON,ioos:station:LUMCON:101:1,2016-02-01T03:00:00Z,29.2533,-90.6633,19.2,1111122 
LUMCON,ioos:station:LUMCON:101:1,2016-02-01T03:15:00Z,29.2533,-90.6633,18.9,1111122 
LUMCON,ioos:station:LUMCON:101:1,2016-02-01T03:30:00Z,29.2533,-90.6633,18.6,1111122 
LUMCON,ioos:station:LUMCON:101:1,2016-02-01T03:45:00Z,29.2533,-90.6633,18.5,1111122 
LUMCON,ioos:station:LUMCON:101:1,2016-02-01T04:00:00Z,29.2533,-90.6633,18.0,1111122 
LUMCON,ioos:station:LUMCON:101:1,2016-02-01T04:15:00Z,29.2533,-90.6633,17.5,1111122 
LUMCON,ioos:station:LUMCON:101:1,2016-02-01T04:30:00Z,29.2533,-90.6633,17.5,1111122 
LUMCON,ioos:station:LUMCON:101:1,2016-02-01T04:45:00Z,29.2533,-90.6633,17.5,1111122 
LUMCON,ioos:station:LUMCON:101:1,2016-02-01T05:00:00Z,29.2533,-90.6633,17.6,1111122 
LUMCON,ioos:station:LUMCON:101:1,2016-02-01T05:15:00Z,29.2533,-90.6633,17.8,1111122 
LUMCON,ioos:station:LUMCON:101:1,2016-02-01T05:30:00Z,29.2533,-90.6633,17.7,1111122 
LUMCON,ioos:station:LUMCON:101:1,2016-02-01T05:45:00Z,29.2533,-90.6633,17.7,1111122 
LUMCON,ioos:station:LUMCON:101:1,2016-02-01T06:00:00Z,29.2533,-90.6633,17.7,1111122 
LUMCON,ioos:station:LUMCON:101:1,2016-02-01T06:15:00Z,29.2533,-90.6633,17.7,1111122 
LUMCON,ioos:station:LUMCON:101:1,2016-02-01T06:30:00Z,29.2533,-90.6633,17.7,1111122 
LUMCON,ioos:station:LUMCON:101:1,2016-02-01T06:45:00Z,29.2533,-90.6633,18.2,1111122 
LUMCON,ioos:station:LUMCON:101:1,2016-02-01T07:00:00Z,29.2533,-90.6633,17.9,1111122 
LUMCON,ioos:station:LUMCON:101:1,2016-02-01T07:15:00Z,29.2533,-90.6633,18.3,1111122 
LUMCON,ioos:station:LUMCON:101:1,2016-02-01T07:30:00Z,29.2533,-90.6633,18.2,1111122 
LUMCON,ioos:station:LUMCON:101:1,2016-02-01T07:45:00Z,29.2533,-90.6633,18.2,1111122 
LUMCON,ioos:station:LUMCON:101:1,2016-02-01T08:00:00Z,29.2533,-90.6633,18.2,1111122 
LUMCON,ioos:station:LUMCON:101:1,2016-02-01T08:15:00Z,29.2533,-90.6633,18.3,1111122 
LUMCON,ioos:station:LUMCON:101:1,2016-02-01T08:30:00Z,29.2533,-90.6633,18.5,1111122 
LUMCON,ioos:station:LUMCON:101:1,2016-02-01T08:45:00Z,29.2533,-90.6633,18.5,1111122 
LUMCON,ioos:station:LUMCON:101:1,2016-02-01T09:00:00Z,29.2533,-90.6633,18.5,1111122 
LUMCON,ioos:station:LUMCON:101:1,2016-02-01T09:15:00Z,29.2533,-90.6633,18.4,1111122 
LUMCON,ioos:station:LUMCON:101:1,2016-02-01T09:30:00Z,29.2533,-90.6633,18.3,1111122 
LUMCON,ioos:station:LUMCON:101:1,2016-02-01T09:45:00Z,29.2533,-90.6633,18.1,1111122 
LUMCON,ioos:station:LUMCON:101:1,2016-02-01T10:00:00Z,29.2533,-90.6633,18.0,1111122 
LUMCON,ioos:station:LUMCON:101:1,2016-02-01T10:15:00Z,29.2533,-90.6633,18.1,1111122 
LUMCON,ioos:station:LUMCON:101:1,2016-02-01T10:30:00Z,29.2533,-90.6633,18.2,1111122 
LUMCON,ioos:station:LUMCON:101:1,2016-02-01T10:45:00Z,29.2533,-90.6633,18.4,1111122 
LUMCON,ioos:station:LUMCON:101:1,2016-02-01T11:00:00Z,29.2533,-90.6633,18.5,1111122 
LUMCON,ioos:station:LUMCON:101:1,2016-02-01T11:15:00Z,29.2533,-90.6633,18.5,1111122 
LUMCON,ioos:station:LUMCON:101:1,2016-02-01T11:30:00Z,29.2533,-90.6633,18.8,1111122 
LUMCON,ioos:station:LUMCON:101:1,2016-02-01T11:45:00Z,29.2533,-90.6633,18.1,1111122 
LUMCON,ioos:station:LUMCON:101:1,2016-02-01T12:00:00Z,29.2533,-90.6633,17.9,1111122 
LUMCON,ioos:station:LUMCON:101:1,2016-02-01T12:15:00Z,29.2533,-90.6633,17.4,1111122 
LUMCON,ioos:station:LUMCON:101:1,2016-02-01T12:30:00Z,29.2533,-90.6633,17.1,1111122 
LUMCON,ioos:station:LUMCON:101:1,2016-02-01T12:45:00Z,29.2533,-90.6633,17.9,1111122 
LUMCON,ioos:station:LUMCON:101:1,2016-02-01T13:00:00Z,29.2533,-90.6633,18.4,1111122 
LUMCON,ioos:station:LUMCON:101:1,2016-02-01T13:15:00Z,29.2533,-90.6633,17.6,1111122 
LUMCON,ioos:station:LUMCON:101:1,2016-02-01T13:30:00Z,29.2533,-90.6633,17.6,1111122 
LUMCON,ioos:station:LUMCON:101:1,2016-02-01T13:45:00Z,29.2533,-90.6633,17.8,1111122 
LUMCON,ioos:station:LUMCON:101:1,2016-02-01T14:00:00Z,29.2533,-90.6633,18.0,1111122 
LUMCON,ioos:station:LUMCON:101:1,2016-02-01T14:15:00Z,29.2533,-90.6633,18.5,1111122 
LUMCON,ioos:station:LUMCON:101:1,2016-02-01T14:30:00Z,29.2533,-90.6633,18.5,1111122 
LUMCON,ioos:station:LUMCON:101:1,2016-02-01T14:45:00Z,29.2533,-90.6633,18.8,1111122 
LUMCON,ioos:station:LUMCON:101:1,2016-02-01T15:00:00Z,29.2533,-90.6633,18.6,1111122 
LUMCON,ioos:station:LUMCON:101:1,2016-02-01T15:15:00Z,29.2533,-90.6633,18.4,1111122 
LUMCON,ioos:station:LUMCON:101:1,2016-02-01T15:30:00Z,29.2533,-90.6633,18.6,1111122 
LUMCON,ioos:station:LUMCON:101:1,2016-02-01T15:45:00Z,29.2533,-90.6633,18.8,1111122 
LUMCON,ioos:station:LUMCON:101:1,2016-02-01T16:00:00Z,29.2533,-90.6633,18.6,1111122 
LUMCON,ioos:station:LUMCON:101:1,2016-02-01T16:15:00Z,29.2533,-90.6633,18.3,1111122 
LUMCON,ioos:station:LUMCON:101:1,2016-02-01T16:30:00Z,29.2533,-90.6633,19.0,1111122 
LUMCON,ioos:station:LUMCON:101:1,2016-02-01T16:45:00Z,29.2533,-90.6633,19.2,1111122 
LUMCON,ioos:station:LUMCON:101:1,2016-02-01T17:00:00Z,29.2533,-90.6633,19.5,1111122 
LUMCON,ioos:station:LUMCON:101:1,2016-02-01T17:15:00Z,29.2533,-90.6633,19.2,1111122 
LUMCON,ioos:station:LUMCON:101:1,2016-02-01T17:30:00Z,29.2533,-90.6633,19.1,1111122 
LUMCON,ioos:station:LUMCON:101:1,2016-02-01T17:45:00Z,29.2533,-90.6633,19.1,1111122 
LUMCON,ioos:station:LUMCON:101:1,2016-02-01T18:00:00Z,29.2533,-90.6633,19.1,1111122 
LUMCON,ioos:station:LUMCON:101:1,2016-02-01T18:15:00Z,29.2533,-90.6633,19.2,1111122 
LUMCON,ioos:station:LUMCON:101:1,2016-02-01T18:30:00Z,29.2533,-90.6633,19.3,1111122 
LUMCON,ioos:station:LUMCON:101:1,2016-02-01T18:45:00Z,29.2533,-90.6633,19.7,1111122 
LUMCON,ioos:station:LUMCON:101:1,2016-02-01T19:00:00Z,29.2533,-90.6633,19.9,1111122 
LUMCON,ioos:station:LUMCON:101:1,2016-02-01T19:15:00Z,29.2533,-90.6633,20.2,1111122 
LUMCON,ioos:station:LUMCON:101:1,2016-02-01T19:30:00Z,29.2533,-90.6633,20.3,1111122 
LUMCON,ioos:station:LUMCON:101:1,2016-02-01T19:45:00Z,29.2533,-90.6633,20.5,1111122 
LUMCON,ioos:station:LUMCON:101:1,2016-02-01T20:00:00Z,29.2533,-90.6633,20.6,1111122 
LUMCON,ioos:station:LUMCON:101:1,2016-02-01T20:15:00Z,29.2533,-90.6633,20.7,1111122 
LUMCON,ioos:station:LUMCON:101:1,2016-02-01T20:30:00Z,29.2533,-90.6633,20.5,1111122 
LUMCON,ioos:station:LUMCON:101:1,2016-02-01T20:45:00Z,29.2533,-90.6633,20.6,1111122 
LUMCON,ioos:station:LUMCON:101:1,2016-02-01T21:00:00Z,29.2533,-90.6633,20.5,1111122 
LUMCON,ioos:station:LUMCON:101:1,2016-02-01T21:15:00Z,29.2533,-90.6633,19.6,1111122 
LUMCON,ioos:station:LUMCON:101:1,2016-02-01T21:30:00Z,29.2533,-90.6633,19.3,1111122 
LUMCON,ioos:station:LUMCON:101:1,2016-02-01T21:45:00Z,29.2533,-90.6633,19.3,1111122 
LUMCON,ioos:station:LUMCON:101:1,2016-02-01T22:00:00Z,29.2533,-90.6633,19.3,1111122 
LUMCON,ioos:station:LUMCON:101:1,2016-02-01T22:15:00Z,29.2533,-90.6633,19.3,1111122 
LUMCON,ioos:station:LUMCON:101:1,2016-02-01T22:30:00Z,29.2533,-90.6633,19.1,1111122 
LUMCON,ioos:station:LUMCON:101:1,2016-02-01T22:45:00Z,29.2533,-90.6633,19.2,1111122 
LUMCON,ioos:station:LUMCON:101:1,2016-02-01T23:00:00Z,29.2533,-90.6633,19.2,1111122 
LUMCON,ioos:station:LUMCON:101:1,2016-02-01T23:15:00Z,29.2533,-90.6633,19.0,1111122 
LUMCON,ioos:station:LUMCON:101:1,2016-02-01T23:30:00Z,29.2533,-90.6633,19.1,1111122 
LUMCON,ioos:station:LUMCON:101:1,2016-02-01T23:45:00Z,29.2533,-90.6633,19.1,1111122 
LUMCON,ioos:station:LUMCON:101:1,2016-02-02T00:00:00Z,29.2533,-90.6633,19.3,1111122 
LUMCON,ioos:station:LUMCON:101:1,2016-02-02T00:15:00Z,29.2533,-90.6633,19.4,1111122 
LUMCON,ioos:station:LUMCON:101:1,2016-02-02T00:30:00Z,29.2533,-90.6633,19.2,1111122 
LUMCON,ioos:station:LUMCON:101:1,2016-02-02T00:45:00Z,29.2533,-90.6633,19.0,1111122 
LUMCON,ioos:station:LUMCON:101:1,2016-02-02T01:00:00Z,29.2533,-90.6633,19.0,1111122 
LUMCON,ioos:station:LUMCON:101:1,2016-02-02T01:15:00Z,29.2533,-90.6633,18.9,1111122 
LUMCON,ioos:station:LUMCON:101:1,2016-02-02T01:30:00Z,29.2533,-90.6633,18.9,1111122 
LUMCON,ioos:station:LUMCON:101:1,2016-02-02T01:45:00Z,29.2533,-90.6633,18.9,1111122 
LUMCON,ioos:station:LUMCON:101:1,2016-02-02T02:00:00Z,29.2533,-90.6633,19.1,1111122 
LUMCON,ioos:station:LUMCON:101:1,2016-02-02T02:15:00Z,29.2533,-90.6633,19.2,1111122 
LUMCON,ioos:station:LUMCON:101:1,2016-02-02T02:30:00Z,29.2533,-90.6633,19.0,1111122 
LUMCON,ioos:station:LUMCON:101:1,2016-02-02T02:45:00Z,29.2533,-90.6633,19.0,1111122 
LUMCON,ioos:station:LUMCON:101:1,2016-02-02T03:00:00Z,29.2533,-90.6633,19.2,1111122 
LUMCON,ioos:station:LUMCON:101:1,2016-02-02T03:15:00Z,29.2533,-90.6633,19.4,1111122 
LUMCON,ioos:station:LUMCON:101:1,2016-02-02T03:30:00Z,29.2533,-90.6633,19.5,1111122 
LUMCON,ioos:station:LUMCON:101:1,2016-02-02T03:45:00Z,29.2533,-90.6633,19.6,1111122 
LUMCON,ioos:station:LUMCON:101:1,2016-02-02T04:00:00Z,29.2533,-90.6633,19.6,1111122 
LUMCON,ioos:station:LUMCON:101:1,2016-02-02T04:15:00Z,29.2533,-90.6633,19.5,1111122 
LUMCON,ioos:station:LUMCON:101:1,2016-02-02T04:30:00Z,29.2533,-90.6633,19.6,1111122 
LUMCON,ioos:station:LUMCON:101:1,2016-02-02T04:45:00Z,29.2533,-90.6633,19.4,1111122 
LUMCON,ioos:station:LUMCON:101:1,2016-02-02T05:00:00Z,29.2533,-90.6633,19.3,1111122 
LUMCON,ioos:station:LUMCON:101:1,2016-02-02T05:15:00Z,29.2533,-90.6633,19.3,1111122 
LUMCON,ioos:station:LUMCON:101:1,2016-02-02T05:30:00Z,29.2533,-90.6633,19.2,1111122 
LUMCON,ioos:station:LUMCON:101:1,2016-02-02T05:45:00Z,29.2533,-90.6633,19.2,1111122 
LUMCON,ioos:station:LUMCON:101:1,2016-02-02T06:00:00Z,29.2533,-90.6633,19.2,1111122 
LUMCON,ioos:station:LUMCON:101:1,2016-02-02T06:15:00Z,29.2533,-90.6633,19.2,1111122 
LUMCON,ioos:station:LUMCON:101:1,2016-02-02T06:30:00Z,29.2533,-90.6633,19.2,1111122 
LUMCON,ioos:station:LUMCON:101:1,2016-02-02T06:45:00Z,29.2533,-90.6633,19.1,1111122 
LUMCON,ioos:station:LUMCON:101:1,2016-02-02T07:00:00Z,29.2533,-90.6633,19.4,1111122 
LUMCON,ioos:station:LUMCON:101:1,2016-02-02T07:15:00Z,29.2533,-90.6633,19.3,1111122 
LUMCON,ioos:station:LUMCON:101:1,2016-02-02T07:30:00Z,29.2533,-90.6633,19.2,1111122 
LUMCON,ioos:station:LUMCON:101:1,2016-02-02T07:45:00Z,29.2533,-90.6633,19.2,1111122 
LUMCON,ioos:station:LUMCON:101:1,2016-02-02T08:00:00Z,29.2533,-90.6633,19.0,1111122 
LUMCON,ioos:station:LUMCON:101:1,2016-02-02T08:15:00Z,29.2533,-90.6633,19.1,1111122 
LUMCON,ioos:station:LUMCON:101:1,2016-02-02T08:30:00Z,29.2533,-90.6633,19.0,1111122 
LUMCON,ioos:station:LUMCON:101:1,2016-02-02T08:45:00Z,29.2533,-90.6633,19.1,1111122 
LUMCON,ioos:station:LUMCON:101:1,2016-02-02T09:00:00Z,29.2533,-90.6633,19.2,1111122 
LUMCON,ioos:station:LUMCON:101:1,2016-02-02T09:15:00Z,29.2533,-90.6633,19.1,1111122 
LUMCON,ioos:station:LUMCON:101:1,2016-02-02T09:30:00Z,29.2533,-90.6633,19.1,1111122 
LUMCON,ioos:station:LUMCON:101:1,2016-02-02T09:45:00Z,29.2533,-90.6633,18.9,1111122 
LUMCON,ioos:station:LUMCON:101:1,2016-02-02T10:00:00Z,29.2533,-90.6633,18.9,1111122 
LUMCON,ioos:station:LUMCON:101:1,2016-02-02T10:15:00Z,29.2533,-90.6633,19.0,1111122 
LUMCON,ioos:station:LUMCON:101:1,2016-02-02T10:30:00Z,29.2533,-90.6633,19.1,1111122 
LUMCON,ioos:station:LUMCON:101:1,2016-02-02T10:45:00Z,29.2533,-90.6633,18.9,1111122 
LUMCON,ioos:station:LUMCON:101:1,2016-02-02T11:00:00Z,29.2533,-90.6633,18.8,1111122 
LUMCON,ioos:station:LUMCON:101:1,2016-02-02T11:15:00Z,29.2533,-90.6633,19.4,1111122 
LUMCON,ioos:station:LUMCON:101:1,2016-02-02T11:30:00Z,29.2533,-90.6633,19.3,1111122 
LUMCON,ioos:station:LUMCON:101:1,2016-02-02T11:45:00Z,29.2533,-90.6633,19.4,1111122 
LUMCON,ioos:station:LUMCON:101:1,2016-02-02T12:00:00Z,29.2533,-90.6633,19.5,1111122 
LUMCON,ioos:station:LUMCON:101:1,2016-02-02T12:15:00Z,29.2533,-90.6633,19.5,1111122 
LUMCON,ioos:station:LUMCON:101:1,2016-02-02T12:30:00Z,29.2533,-90.6633,19.7,1111122 
LUMCON,ioos:station:LUMCON:101:1,2016-02-02T12:45:00Z,29.2533,-90.6633,19.8,1111122 
LUMCON,ioos:station:LUMCON:101:1,2016-02-02T13:00:00Z,29.2533,-90.6633,19.9,1111122 
LUMCON,ioos:station:LUMCON:101:1,2016-02-02T13:15:00Z,29.2533,-90.6633,20.1,1111122 
LUMCON,ioos:station:LUMCON:101:1,2016-02-02T13:30:00Z,29.2533,-90.6633,20.4,1111122 
LUMCON,ioos:station:LUMCON:101:1,2016-02-02T13:45:00Z,29.2533,-90.6633,20.4,1111122 
LUMCON,ioos:station:LUMCON:101:1,2016-02-02T14:00:00Z,29.2533,-90.6633,20.4,1111122 
LUMCON,ioos:station:LUMCON:101:1,2016-02-02T14:15:00Z,29.2533,-90.6633,20.7,1111122 
LUMCON,ioos:station:LUMCON:101:1,2016-02-02T14:30:00Z,29.2533,-90.6633,20.8,1111122 
LUMCON,ioos:station:LUMCON:101:1,2016-02-02T14:45:00Z,29.2533,-90.6633,21.0,1111122 
LUMCON,ioos:station:LUMCON:101:1,2016-02-02T15:00:00Z,29.2533,-90.6633,21.1,1111122 
LUMCON,ioos:station:LUMCON:101:1,2016-02-02T15:15:00Z,29.2533,-90.6633,21.0,1111122 
LUMCON,ioos:station:LUMCON:101:1,2016-02-02T15:30:00Z,29.2533,-90.6633,21.0,1111122 
LUMCON,ioos:station:LUMCON:101:1,2016-02-02T15:45:00Z,29.2533,-90.6633,21.0,1111122 
LUMCON,ioos:station:LUMCON:101:1,2016-02-02T16:00:00Z,29.2533,-90.6633,21.1,1111122 
LUMCON,ioos:station:LUMCON:101:1,2016-02-02T16:15:00Z,29.2533,-90.6633,20.9,1111122 
LUMCON,ioos:station:LUMCON:101:1,2016-02-02T16:30:00Z,29.2533,-90.6633,21.6,1111122 
LUMCON,ioos:station:LUMCON:101:1,2016-02-02T16:45:00Z,29.2533,-90.6633,21.2,1111122 
LUMCON,ioos:station:LUMCON:101:1,2016-02-02T17:00:00Z,29.2533,-90.6633,21.2,1111122 
LUMCON,ioos:station:LUMCON:101:1,2016-02-02T17:15:00Z,29.2533,-90.6633,21.4,1111122 
LUMCON,ioos:station:LUMCON:101:1,2016-02-02T17:30:00Z,29.2533,-90.6633,21.4,1111122 
LUMCON,ioos:station:LUMCON:101:1,2016-02-02T17:45:00Z,29.2533,-90.6633,21.4,1111122 
LUMCON,ioos:station:LUMCON:101:1,2016-02-02T18:00:00Z,29.2533,-90.6633,21.5,1111122 
LUMCON,ioos:station:LUMCON:101:1,2016-02-02T18:15:00Z,29.2533,-90.6633,21.8,1111122 
LUMCON,ioos:station:LUMCON:101:1,2016-02-02T18:30:00Z,29.2533,-90.6633,21.9,1111122 
LUMCON,ioos:station:LUMCON:101:1,2016-02-02T18:45:00Z,29.2533,-90.6633,21.6,1111122 
LUMCON,ioos:station:LUMCON:101:1,2016-02-02T19:00:00Z,29.2533,-90.6633,21.4,1111122 
LUMCON,ioos:station:LUMCON:101:1,2016-02-02T19:15:00Z,29.2533,-90.6633,21.7,1111122 
LUMCON,ioos:station:LUMCON:101:1,2016-02-02T19:30:00Z,29.2533,-90.6633,22.1,1111122 
LUMCON,ioos:station:LUMCON:101:1,2016-02-02T19:45:00Z,29.2533,-90.6633,21.8,1111122 
LUMCON,ioos:station:LUMCON:101:1,2016-02-02T20:00:00Z,29.2533,-90.6633,21.7,1111122 
LUMCON,ioos:station:LUMCON:101:1,2016-02-02T20:15:00Z,29.2533,-90.6633,21.5,1111122 
LUMCON,ioos:station:LUMCON:101:1,2016-02-02T20:30:00Z,29.2533,-90.6633,21.2,1111122 
LUMCON,ioos:station:LUMCON:101:1,2016-02-02T20:45:00Z,29.2533,-90.6633,21.1,1111122 
LUMCON,ioos:station:LUMCON:101:1,2016-02-02T21:00:00Z,29.2533,-90.6633,21.0,1111122 
LUMCON,ioos:station:LUMCON:101:1,2016-02-02T21:15:00Z,29.2533,-90.6633,21.1,1111122 
LUMCON,ioos:station:LUMCON:101:1,2016-02-02T21:30:00Z,29.2533,-90.6633,20.9,1111122 
LUMCON,ioos:station:LUMCON:101:1,2016-02-02T21:45:00Z,29.2533,-90.6633,20.7,1111122 
LUMCON,ioos:station:LUMCON:101:1,2016-02-02T22:00:00Z,29.2533,-90.6633,20.7,1111122 
LUMCON,ioos:station:LUMCON:101:1,2016-02-02T22:15:00Z,29.2533,-90.6633,20.6,1111122 
LUMCON,ioos:station:LUMCON:101:1,2016-02-02T22:30:00Z,29.2533,-90.6633,20.5,1111122 
LUMCON,ioos:station:LUMCON:101:1,2016-02-02T22:45:00Z,29.2533,-90.6633,20.5,1111122 
LUMCON,ioos:station:LUMCON:101:1,2016-02-02T23:00:00Z,29.2533,-90.6633,20.5,1111122 
LUMCON,ioos:station:LUMCON:101:1,2016-02-02T23:15:00Z,29.2533,-90.6633,20.8,1111122 
LUMCON,ioos:station:LUMCON:101:1,2016-02-02T23:30:00Z,29.2533,-90.6633,20.6,1111122 
LUMCON,ioos:station:LUMCON:101:1,2016-02-02T23:45:00Z,29.2533,-90.6633,20.9,1111122 
LUMCON,ioos:station:LUMCON:101:1,2016-02-03T00:00:00Z,29.2533,-90.6633,20.9,1111122 
LUMCON,ioos:station:LUMCON:101:1,2016-02-03T00:15:00Z,29.2533,-90.6633,20.9,1111122 
LUMCON,ioos:station:LUMCON:101:1,2016-02-03T00:30:00Z,29.2533,-90.6633,21.1,1111122 
LUMCON,ioos:station:LUMCON:101:1,2016-02-03T00:45:00Z,29.2533,-90.6633,20.8,1111122 
LUMCON,ioos:station:LUMCON:101:1,2016-02-03T01:00:00Z,29.2533,-90.6633,20.7,1111122 
LUMCON,ioos:station:LUMCON:101:1,2016-02-03T01:15:00Z,29.2533,-90.6633,20.7,1111122 
LUMCON,ioos:station:LUMCON:101:1,2016-02-03T01:30:00Z,29.2533,-90.6633,20.5,1111122 
LUMCON,ioos:station:LUMCON:101:1,2016-02-03T01:45:00Z,29.2533,-90.6633,20.6,1111122 
LUMCON,ioos:station:LUMCON:101:1,2016-02-03T02:00:00Z,29.2533,-90.6633,20.7,1111122 
LUMCON,ioos:station:LUMCON:101:1,2016-02-03T02:15:00Z,29.2533,-90.6633,21.0,1111122 
LUMCON,ioos:station:LUMCON:101:1,2016-02-03T02:30:00Z,29.2533,-90.6633,20.9,1111122 
LUMCON,ioos:station:LUMCON:101:1,2016-02-03T02:45:00Z,29.2533,-90.6633,21.0,1111122 
LUMCON,ioos:station:LUMCON:101:1,2016-02-03T03:00:00Z,29.2533,-90.6633,21.2,1111122 
LUMCON,ioos:station:LUMCON:101:1,2016-02-03T03:15:00Z,29.2533,-90.6633,21.4,1111122 
LUMCON,ioos:station:LUMCON:101:1,2016-02-03T03:30:00Z,29.2533,-90.6633,21.1,1111122 
LUMCON,ioos:station:LUMCON:101:1,2016-02-03T03:45:00Z,29.2533,-90.6633,21.3,1111122 
LUMCON,ioos:station:LUMCON:101:1,2016-02-03T04:00:00Z,29.2533,-90.6633,20.9,1111122 
LUMCON,ioos:station:LUMCON:101:1,2016-02-03T04:15:00Z,29.2533,-90.6633,20.9,1111122 
LUMCON,ioos:station:LUMCON:101:1,2016-02-03T04:30:00Z,29.2533,-90.6633,20.6,1111122 
LUMCON,ioos:station:LUMCON:101:1,2016-02-03T04:45:00Z,29.2533,-90.6633,20.6,1111122 
LUMCON,ioos:station:LUMCON:101:1,2016-02-03T05:00:00Z,29.2533,-90.6633,20.7,1111122 
LUMCON,ioos:station:LUMCON:101:1,2016-02-03T05:15:00Z,29.2533,-90.6633,21.0,1111122 
LUMCON,ioos:station:LUMCON:101:1,2016-02-03T05:30:00Z,29.2533,-90.6633,21.1,1111122 
LUMCON,ioos:station:LUMCON:101:1,2016-02-03T05:45:00Z,29.2533,-90.6633,21.3,1111122 
LUMCON,ioos:station:LUMCON:101:1,2016-02-03T06:00:00Z,29.2533,-90.6633,21.3,1111122 
LUMCON,ioos:station:LUMCON:101:1,2016-02-03T06:15:00Z,29.2533,-90.6633,21.7,1111122 
LUMCON,ioos:station:LUMCON:101:1,2016-02-03T06:30:00Z,29.2533,-90.6633,21.5,1111122 
LUMCON,ioos:station:LUMCON:101:1,2016-02-03T06:45:00Z,29.2533,-90.6633,20.2,1111122 
LUMCON,ioos:station:LUMCON:101:1,2016-02-03T07:00:00Z,29.2533,-90.6633,16.1,1111122 
LUMCON,ioos:station:LUMCON:101:1,2016-02-03T07:15:00Z,29.2533,-90.6633,14.9,1111122 
LUMCON,ioos:station:LUMCON:101:1,2016-02-03T07:30:00Z,29.2533,-90.6633,13.9,1111122 
LUMCON,ioos:station:LUMCON:101:1,2016-02-03T07:45:00Z,29.2533,-90.6633,13.7,1111122 
LUMCON,ioos:station:LUMCON:101:1,2016-02-03T08:00:00Z,29.2533,-90.6633,13.7,1111122 
LUMCON,ioos:station:LUMCON:101:1,2016-02-03T08:15:00Z,29.2533,-90.6633,14.0,1111122 
LUMCON,ioos:station:LUMCON:101:1,2016-02-03T08:30:00Z,29.2533,-90.6633,14.2,1111122 
LUMCON,ioos:station:LUMCON:101:1,2016-02-03T08:45:00Z,29.2533,-90.6633,14.5,1111122 
LUMCON,ioos:station:LUMCON:101:1,2016-02-03T09:00:00Z,29.2533,-90.6633,14.4,1111122 
LUMCON,ioos:station:LUMCON:101:1,2016-02-03T09:15:00Z,29.2533,-90.6633,14.1,1111122 
LUMCON,ioos:station:LUMCON:101:1,2016-02-03T09:30:00Z,29.2533,-90.6633,13.5,1111122 
LUMCON,ioos:station:LUMCON:101:1,2016-02-03T09:45:00Z,29.2533,-90.6633,13.1,1111122 
LUMCON,ioos:station:LUMCON:101:1,2016-02-03T10:00:00Z,29.2533,-90.6633,12.9,1111122 
LUMCON,ioos:station:LUMCON:101:1,2016-02-03T10:15:00Z,29.2533,-90.6633,13.1,1111122 
LUMCON,ioos:station:LUMCON:101:1,2016-02-03T10:30:00Z,29.2533,-90.6633,13.5,1111122 
LUMCON,ioos:station:LUMCON:101:1,2016-02-03T10:45:00Z,29.2533,-90.6633,13.9,1111122 
LUMCON,ioos:station:LUMCON:101:1,2016-02-03T11:00:00Z,29.2533,-90.6633,13.9,1111122 
LUMCON,ioos:station:LUMCON:101:1,2016-02-03T11:15:00Z,29.2533,-90.6633,14.3,1111122 
LUMCON,ioos:station:LUMCON:101:1,2016-02-03T11:30:00Z,29.2533,-90.6633,14.4,1111122 
LUMCON,ioos:station:LUMCON:101:1,2016-02-03T11:45:00Z,29.2533,-90.6633,14.4,1111122 
LUMCON,ioos:station:LUMCON:101:1,2016-02-03T12:00:00Z,29.2533,-90.6633,14.3,1111122 
LUMCON,ioos:station:LUMCON:101:1,2016-02-03T12:15:00Z,29.2533,-90.6633,14.4,1111122 
LUMCON,ioos:station:LUMCON:101:1,2016-02-03T12:30:00Z,29.2533,-90.6633,14.2,1111122 
LUMCON,ioos:station:LUMCON:101:1,2016-02-03T12:45:00Z,29.2533,-90.6633,14.3,1111122 
LUMCON,ioos:station:LUMCON:101:1,2016-02-03T13:00:00Z,29.2533,-90.6633,14.4,1111122 
LUMCON,ioos:station:LUMCON:101:1,2016-02-03T13:15:00Z,29.2533,-90.6633,14.6,1111122 
LUMCON,ioos:station:LUMCON:101:1,2016-02-03T13:30:00Z,29.2533,-90.6633,14.9,1111122 
LUMCON,ioos:station:LUMCON:101:1,2016-02-03T13:45:00Z,29.2533,-90.6633,15.2,1111122 
LUMCON,ioos:station:LUMCON:101:1,2016-02-03T14:00:00Z,29.2533,-90.6633,15.3,1111122 
LUMCON,ioos:station:LUMCON:101:1,2016-02-03T14:15:00Z,29.2533,-90.6633,15.7,1111122 
LUMCON,ioos:station:LUMCON:101:1,2016-02-03T14:30:00Z,29.2533,-90.6633,15.4,1111122 
LUMCON,ioos:station:LUMCON:101:1,2016-02-03T14:45:00Z,29.2533,-90.6633,15.4,1111122 
LUMCON,ioos:station:LUMCON:101:1,2016-02-03T15:00:00Z,29.2533,-90.6633,15.6,1111122 
LUMCON,ioos:station:LUMCON:101:1,2016-02-03T15:15:00Z,29.2533,-90.6633,15.8,1111122 
LUMCON,ioos:station:LUMCON:101:1,2016-02-03T15:30:00Z,29.2533,-90.6633,15.9,1111122 
LUMCON,ioos:station:LUMCON:101:1,2016-02-03T15:45:00Z,29.2533,-90.6633,16.5,1111122 
LUMCON,ioos:station:LUMCON:101:1,2016-02-03T16:00:00Z,29.2533,-90.6633,16.4,1111122 
LUMCON,ioos:station:LUMCON:101:1,2016-02-03T16:15:00Z,29.2533,-90.6633,16.4,1111122 
LUMCON,ioos:station:LUMCON:101:1,2016-02-03T16:30:00Z,29.2533,-90.6633,16.5,1111122 
LUMCON,ioos:station:LUMCON:101:1,2016-02-03T16:45:00Z,29.2533,-90.6633,16.7,1111122 
LUMCON,ioos:station:LUMCON:101:1,2016-02-03T17:00:00Z,29.2533,-90.6633,17.0,1111122 
LUMCON,ioos:station:LUMCON:101:1,2016-02-03T17:15:00Z,29.2533,-90.6633,17.0,1111122 
LUMCON,ioos:station:LUMCON:101:1,2016-02-03T17:30:00Z,29.2533,-90.6633,17.0,1111122 
LUMCON,ioos:station:LUMCON:101:1,2016-02-03T17:45:00Z,29.2533,-90.6633,17.2,1111122 
LUMCON,ioos:station:LUMCON:101:1,2016-02-03T18:00:00Z,29.2533,-90.6633,17.5,1111122 
LUMCON,ioos:station:LUMCON:101:1,2016-02-03T18:15:00Z,29.2533,-90.6633,17.6,1111122 
LUMCON,ioos:station:LUMCON:101:1,2016-02-03T18:30:00Z,29.2533,-90.6633,17.9,1111122 
LUMCON,ioos:station:LUMCON:101:1,2016-02-03T18:45:00Z,29.2533,-90.6633,18.1,1111122 
LUMCON,ioos:station:LUMCON:101:1,2016-02-03T19:00:00Z,29.2533,-90.6633,18.2,1111122 
LUMCON,ioos:station:LUMCON:101:1,2016-02-03T19:15:00Z,29.2533,-90.6633,18.4,1111122 
LUMCON,ioos:station:LUMCON:101:1,2016-02-03T19:30:00Z,29.2533,-90.6633,18.3,1111122 
LUMCON,ioos:station:LUMCON:101:1,2016-02-03T19:45:00Z,29.2533,-90.6633,18.5,1111122 
LUMCON,ioos:station:LUMCON:101:1,2016-02-03T20:00:00Z,29.2533,-90.6633,18.2,1111122 
LUMCON,ioos:station:LUMCON:101:1,2016-02-03T20:15:00Z,29.2533,-90.6633,18.2,1111122 
LUMCON,ioos:station:LUMCON:101:1,2016-02-03T20:30:00Z,29.2533,-90.6633,18.2,1111122 
LUMCON,ioos:station:LUMCON:101:1,2016-02-03T20:45:00Z,29.2533,-90.6633,18.2,1111122 
LUMCON,ioos:station:LUMCON:101:1,2016-02-03T21:00:00Z,29.2533,-90.6633,18.2,1111122 
LUMCON,ioos:station:LUMCON:101:1,2016-02-03T21:15:00Z,29.2533,-90.6633,18.3,1111122 
LUMCON,ioos:station:LUMCON:101:1,2016-02-03T21:30:00Z,29.2533,-90.6633,18.3,1111122 
LUMCON,ioos:station:LUMCON:101:1,2016-02-03T21:45:00Z,29.2533,-90.6633,18.3,1111122 
LUMCON,ioos:station:LUMCON:101:1,2016-02-03T22:00:00Z,29.2533,-90.6633,18.2,1111122 